Location: *
(28.3744°N, 81.5492°W)
Time: 14:18:20
(UTC+00:00)

IDEFIX/ARIANE 42P - Pass Details

Date: 15 June 2025
Orbit: 780 x 798 km, 98.6° (Epoch: 15 July)

Event Time Altitude Azimuth Distance (km) Brightness Sun altitude
Rises 06:19:15 0° 24° (NNE) 3,295 6.7 -36.8°
Reaches altitude 10° 06:21:47 10° 33° (NNE) 2,359 5.7 -36.6°
Enters shadow 06:24:16 24° 53° (NE) 1,573 4.5 -36.5°
